Regional Weather Roundup
Issued by NWS

Home | Current Version | Previous Version | Text Only | Print | Product List | Glossary Off
Versions: 1 2 3 4 5 6 7 8 9 10 11 12 13 14 15 16 17 18 19 20 21 22 23 24 25 26 27 28 29 30 31 32 33 34 35 36 37 38 39 40 41 42 43 44 45 46 47 48 49 50

000
ASUS43 KBIS 050602
RWRND

NORTH DAKOTA REGIONAL WEATHER ROUNDUP
NATIONAL WEATHER SERVICE BISMARCK ND
100 AM CDT SUN JUL 05 2015

NOTE: "FAIR" INDICATES FEW OR NO CLOUDS BELOW 12,000 FEET WITH NO
SIGNIFICANT WEATHER AND/OR OBSTRUCTIONS TO VISIBILITY.


NDZ001>003-009>011-017-050700-
NORTHWEST NORTH DAKOTA

CITY           SKY/WX    TMP DP  RH WIND       PRES   REMARKS
WILLISTON      CLEAR     68  62  81 N12       29.78S
6HR MIN TEMP:  68; 6HR MAX TEMP:  83;

MINOT          CLEAR     63  61  93 NW3       29.76R
$$

NDZ018>021-031>035-040>046-050700-
SOUTHWEST NORTH DAKOTA

CITY           SKY/WX    TMP DP  RH WIND       PRES   REMARKS
BISMARCK       CLEAR     74  69  85 CALM      29.72R
6HR MIN TEMP:  72; 6HR MAX TEMP:  84;

DICKINSON      CLEAR     68  57  68 NE7       29.76F
GARRISON         N/A     65  62  90 CALM      29.74R
6HR MIN TEMP:  65; 6HR MAX TEMP:  79;

HETTINGER ARPT CLEAR     62  60  93 CALM      29.78F FOG
$$

NDZ004>008-012>016-024-026-027-054-050700-
NORTHEAST NORTH DAKOTA

CITY           SKY/WX    TMP DP  RH WIND       PRES   REMARKS
GRAND FORKS    LGT RAIN  75  68  78 SW12      29.72R
GRND FRKS AFB  LGT RAIN  75  68  78 W29G36    29.77R
DEVILS LAKE    MOCLDY    70  63  78 SE5       29.73F
$$

NDZ022-023-025-028>030-036>039-047>053-050700-
SOUTHEAST NORTH DAKOTA

CITY           SKY/WX    TMP DP  RH WIND       PRES   REMARKS
FARGO          CLOUDY    74  65  73 S12       29.77R
6HR MIN TEMP:  74; 6HR MAX TEMP:  83;

JAMESTOWN      PTCLDY    72  67  84 S7        29.75R
$$




USA.gov is the U.S. government's official web portal to all federal, state and local government web resources and services.